Time,TemperatureF,DewpointF,PressureIn,WindDirection,WindDirectionDegrees,WindSpeedMPH,WindSpeedGustMPH,Humidity,HourlyPrecipIn,Conditions,Clouds,dailyrainin,SoftwareType,DateUTC
2013-04-11 00:11:00,34.4,29.0,29.89,ENE,65,4.0,-999.0,79,-99.99,,,0.00,weatherlink.com 1.10,2013-04-11 05:11:00,
2013-04-11 01:26:00,34.0,28.0,29.85,East,87,2.0,-999.0,79,-99.99,,,0.00,weatherlink.com 1.10,2013-04-11 06:26:00,
2013-04-11 01:41:00,34.1,28.0,29.84,East,86,3.0,-999.0,77,-99.99,,,0.00,weatherlink.com 1.10,2013-04-11 06:41:00,
2013-04-11 01:56:00,34.6,27.0,29.83,NE,53,5.0,-999.0,74,-99.99,,,0.01,weatherlink.com 1.10,2013-04-11 06:56:00,
2013-04-11 02:11:00,34.7,26.0,29.82,ENE,62,3.0,-999.0,71,-99.99,,,0.01,weatherlink.com 1.10,2013-04-11 07:11:00,
2013-04-11 02:41:00,35.3,25.0,29.79,ENE,73,3.0,-999.0,66,-99.99,,,0.01,weatherlink.com 1.10,2013-04-11 07:41:00,
2013-04-11 03:26:00,34.7,24.0,29.78,ENE,73,5.0,-999.0,66,-99.99,,,0.01,weatherlink.com 1.10,2013-04-11 08:26:00,
2013-04-11 03:56:00,32.8,27.0,29.77,NNE,27,5.0,-999.0,79,-99.99,,,0.02,weatherlink.com 1.10,2013-04-11 08:56:00,
2013-04-11 04:26:00,32.4,28.0,29.75,ENE,65,7.0,-999.0,82,-99.99,,,0.07,weatherlink.com 1.10,2013-04-11 09:26:00,
2013-04-11 04:41:00,32.1,28.0,29.75,North,1,4.0,-999.0,84,-99.99,,,0.11,weatherlink.com 1.10,2013-04-11 09:41:00,
2013-04-11 05:11:00,31.6,28.0,29.78,ENE,72,0.0,-999.0,86,-99.99,,,0.13,weatherlink.com 1.10,2013-04-11 10:11:00,
2013-04-11 05:26:00,31.3,28.0,29.79,ENE,72,0.0,-999.0,87,-99.99,,,0.13,weatherlink.com 1.10,2013-04-11 10:26:00,
2013-04-11 05:41:00,31.0,28.0,29.80,ENE,72,0.0,-999.0,88,-99.99,,,0.13,weatherlink.com 1.10,2013-04-11 10:41:00,
2013-04-11 05:56:00,30.9,28.0,29.80,ENE,72,0.0,-999.0,89,-99.99,,,0.13,weatherlink.com 1.10,2013-04-11 10:56:00,
2013-04-11 06:11:00,30.7,28.0,29.81,ENE,72,0.0,-999.0,90,-99.99,,,0.13,weatherlink.com 1.10,2013-04-11 11:11:00,
2013-04-11 06:26:00,30.4,28.0,29.79,ENE,72,0.0,-999.0,91,-99.99,,,0.13,weatherlink.com 1.10,2013-04-11 11:26:00,
2013-04-11 06:41:00,30.4,28.0,29.78,ENE,72,0.0,-999.0,92,-99.99,,,0.13,weatherlink.com 1.10,2013-04-11 11:41:00,
2013-04-11 06:56:00,30.3,28.0,29.77,ENE,72,0.0,-999.0,92,-99.99,,,0.13,weatherlink.com 1.10,2013-04-11 11:56:00,
2013-04-11 07:25:00,30.3,29.0,29.76,ENE,72,0.0,-999.0,93,-99.99,,,0.13,weatherlink.com 1.10,2013-04-11 12:25:00,
2013-04-11 07:40:00,30.4,29.0,29.75,ENE,72,0.0,-999.0,93,-99.99,,,0.13,weatherlink.com 1.10,2013-04-11 12:40:00,
2013-04-11 07:55:00,30.3,29.0,29.75,ENE,72,0.0,-999.0,94,-99.99,,,0.13,weatherlink.com 1.10,2013-04-11 12:55:00,
2013-04-11 08:10:00,30.4,29.0,29.75,ENE,72,0.0,-999.0,94,-99.99,,,0.13,weatherlink.com 1.10,2013-04-11 13:10:00,
2013-04-11 08:25:00,30.3,29.0,29.74,ENE,72,0.0,-999.0,94,-99.99,,,0.13,weatherlink.com 1.10,2013-04-11 13:25:00,
2013-04-11 08:40:00,30.4,29.0,29.74,ENE,72,0.0,-999.0,94,-99.99,,,0.13,weatherlink.com 1.10,2013-04-11 13:40:00,
2013-04-11 08:55:00,30.6,29.0,29.73,ENE,72,0.0,-999.0,94,-99.99,,,0.13,weatherlink.com 1.10,2013-04-11 13:55:00,
2013-04-11 09:10:00,31.0,30.0,29.73,ENE,72,0.0,-999.0,95,-99.99,,,0.13,weatherlink.com 1.10,2013-04-11 14:10:00,
2013-04-11 09:25:00,31.3,30.0,29.72,ENE,72,0.0,-999.0,95,-99.99,,,0.13,weatherlink.com 1.10,2013-04-11 14:25:00,
2013-04-11 09:40:00,31.2,30.0,29.73,ENE,73,0.0,-999.0,94,-99.99,,,0.13,weatherlink.com 1.10,2013-04-11 14:40:00,
2013-04-11 09:55:00,31.6,30.0,29.73,East,88,0.0,-999.0,95,-99.99,,,0.13,weatherlink.com 1.10,2013-04-11 14:55:00,
2013-04-11 10:10:00,31.8,31.0,29.73,ENE,77,9.0,-999.0,95,-99.99,,,0.14,weatherlink.com 1.10,2013-04-11 15:10:00,
2013-04-11 10:25:00,31.8,31.0,29.73,NE,37,6.0,-999.0,95,-99.99,,,0.15,weatherlink.com 1.10,2013-04-11 15:25:00,
2013-04-11 10:40:00,32.1,31.0,29.73,East,79,4.0,-999.0,95,-99.99,,,0.15,weatherlink.com 1.10,2013-04-11 15:40:00,
2013-04-11 10:55:00,32.5,31.0,29.73,East,79,3.0,-999.0,95,-99.99,,,0.16,weatherlink.com 1.10,2013-04-11 15:55:00,
2013-04-11 11:10:00,32.7,32.0,29.73,ENE,75,6.0,-999.0,95,-99.99,,,0.17,weatherlink.com 1.10,2013-04-11 16:10:00,
2013-04-11 11:25:00,32.8,32.0,29.73,ENE,77,6.0,-999.0,95,-99.99,,,0.19,weatherlink.com 1.10,2013-04-11 16:25:00,
2013-04-11 11:40:00,32.8,32.0,29.73,ESE,106,3.0,-999.0,95,-99.99,,,0.20,weatherlink.com 1.10,2013-04-11 16:40:00,
2013-04-11 11:55:00,32.9,32.0,29.74,ENE,65,6.0,-999.0,95,-99.99,,,0.22,weatherlink.com 1.10,2013-04-11 16:55:00,
2013-04-11 12:10:00,33.1,32.0,29.73,ENE,58,2.0,-999.0,95,-99.99,,,0.23,weatherlink.com 1.10,2013-04-11 17:10:00,
2013-04-11 12:25:00,33.1,32.0,29.72,NE,53,3.0,-999.0,95,-99.99,,,0.25,weatherlink.com 1.10,2013-04-11 17:25:00,
2013-04-11 12:40:00,33.1,32.0,29.72,ENE,68,4.0,-999.0,95,-99.99,,,0.27,weatherlink.com 1.10,2013-04-11 17:40:00,
2013-04-11 12:55:00,33.2,32.0,29.71,NNE,33,7.0,-999.0,95,-99.99,,,0.29,weatherlink.com 1.10,2013-04-11 17:55:00,
2013-04-11 13:10:00,33.2,32.0,29.70,ENE,71,2.0,-999.0,95,-99.99,,,0.30,weatherlink.com 1.10,2013-04-11 18:10:00,
2013-04-11 13:25:00,33.2,32.0,29.69,NE,49,3.0,-999.0,95,-99.99,,,0.32,weatherlink.com 1.10,2013-04-11 18:25:00,
2013-04-11 13:40:00,33.2,32.0,29.68,ENE,75,1.0,-999.0,94,-99.99,,,0.33,weatherlink.com 1.10,2013-04-11 18:40:00,
2013-04-11 13:55:00,33.2,32.0,29.68,NE,34,4.0,-999.0,94,-99.99,,,0.35,weatherlink.com 1.10,2013-04-11 18:55:00,
2013-04-11 14:10:00,33.4,32.0,29.67,ENE,70,6.0,-999.0,94,-99.99,,,0.36,weatherlink.com 1.10,2013-04-11 19:10:00,
2013-04-11 14:25:00,33.5,32.0,29.68,East,84,4.0,-999.0,94,-99.99,,,0.37,weatherlink.com 1.10,2013-04-11 19:25:00,
2013-04-11 14:40:00,33.7,32.0,29.69,NE,45,3.0,-999.0,93,-99.99,,,0.38,weatherlink.com 1.10,2013-04-11 19:40:00,
2013-04-11 14:55:00,33.8,32.0,29.68,NE,44,4.0,-999.0,93,-99.99,,,0.39,weatherlink.com 1.10,2013-04-11 19:55:00,
2013-04-11 15:10:00,33.8,32.0,29.68,ESE,117,6.0,-999.0,93,-99.99,,,0.41,weatherlink.com 1.10,2013-04-11 20:10:00,
2013-04-11 15:25:00,33.7,32.0,29.69,ENE,65,7.0,-999.0,93,-99.99,,,0.42,weatherlink.com 1.10,2013-04-11 20:25:00,
2013-04-11 15:40:00,33.7,32.0,29.68,ENE,76,5.0,-999.0,93,-99.99,,,0.43,weatherlink.com 1.10,2013-04-11 20:40:00,
2013-04-11 15:55:00,33.7,32.0,29.68,ENE,68,2.0,-999.0,94,-99.99,,,0.45,weatherlink.com 1.10,2013-04-11 20:55:00,
2013-04-11 16:10:00,33.7,32.0,29.68,NE,34,9.0,-999.0,94,-99.99,,,0.46,weatherlink.com 1.10,2013-04-11 21:10:00,
2013-04-11 16:25:00,33.5,32.0,29.68,East,89,7.0,-999.0,94,-99.99,,,0.47,weatherlink.com 1.10,2013-04-11 21:25:00,
2013-04-11 16:40:00,33.5,32.0,29.68,NE,47,7.0,-999.0,94,-99.99,,,0.48,weatherlink.com 1.10,2013-04-11 21:40:00,
2013-04-11 16:55:00,33.5,32.0,29.68,ENE,70,3.0,-999.0,94,-99.99,,,0.49,weatherlink.com 1.10,2013-04-11 21:55:00,
2013-04-11 17:10:00,33.4,32.0,29.68,ENE,69,3.0,-999.0,94,-99.99,,,0.50,weatherlink.com 1.10,2013-04-11 22:10:00,
2013-04-11 17:25:00,33.2,32.0,29.68,NE,46,3.0,-999.0,94,-99.99,,,0.51,weatherlink.com 1.10,2013-04-11 22:25:00,
2013-04-11 17:40:00,33.4,32.0,29.69,ENE,62,6.0,-999.0,94,-99.99,,,0.52,weatherlink.com 1.10,2013-04-11 22:40:00,
2013-04-11 17:55:00,33.4,32.0,29.69,NE,44,3.0,-999.0,94,-99.99,,,0.52,weatherlink.com 1.10,2013-04-11 22:55:00,
2013-04-11 18:10:00,33.4,32.0,29.69,ENE,68,4.0,-999.0,94,-99.99,,,0.53,weatherlink.com 1.10,2013-04-11 23:10:00,
2013-04-11 18:25:00,33.4,32.0,29.69,ENE,68,4.0,-999.0,94,-99.99,,,0.54,weatherlink.com 1.10,2013-04-11 23:25:00,
2013-04-11 18:40:00,32.9,31.0,29.69,ENE,59,5.0,-999.0,94,-99.99,,,0.54,weatherlink.com 1.10,2013-04-11 23:40:00,
2013-04-11 18:55:00,32.8,31.0,29.69,ENE,66,4.0,-999.0,94,-99.99,,,0.54,weatherlink.com 1.10,2013-04-11 23:55:00,
2013-04-11 19:10:00,32.7,31.0,29.68,ENE,72,4.0,-999.0,94,-99.99,,,0.55,weatherlink.com 1.10,2013-04-12 00:10:00,
2013-04-11 19:25:00,32.5,31.0,29.68,ENE,75,3.0,-999.0,94,-99.99,,,0.55,weatherlink.com 1.10,2013-04-12 00:25:00,
2013-04-11 19:40:00,32.4,31.0,29.68,ENE,78,5.0,-999.0,94,-99.99,,,0.55,weatherlink.com 1.10,2013-04-12 00:40:00,
2013-04-11 19:55:00,32.2,31.0,29.68,NE,44,6.0,-999.0,95,-99.99,,,0.55,weatherlink.com 1.10,2013-04-12 00:55:00,
2013-04-11 20:10:00,32.4,31.0,29.68,ENE,61,7.0,-999.0,95,-99.99,,,0.55,weatherlink.com 1.10,2013-04-12 01:10:00,
2013-04-11 20:25:00,32.4,31.0,29.68,East,82,2.0,-999.0,95,-99.99,,,0.55,weatherlink.com 1.10,2013-04-12 01:25:00,
2013-04-11 20:40:00,32.2,31.0,29.68,ESE,103,3.0,-999.0,95,-99.99,,,0.55,weatherlink.com 1.10,2013-04-12 01:40:00,
2013-04-11 20:55:00,32.1,31.0,29.69,NE,42,3.0,-999.0,95,-99.99,,,0.55,weatherlink.com 1.10,2013-04-12 01:55:00,
2013-04-11 21:10:00,31.8,31.0,29.69,ENE,60,3.0,-999.0,95,-99.99,,,0.56,weatherlink.com 1.10,2013-04-12 02:10:00,
2013-04-11 21:25:00,31.6,30.0,29.69,NE,44,3.0,-999.0,95,-99.99,,,0.56,weatherlink.com 1.10,2013-04-12 02:25:00,
2013-04-11 21:40:00,31.5,30.0,29.69,NNE,32,4.0,-999.0,95,-99.99,,,0.56,weatherlink.com 1.10,2013-04-12 02:40:00,
2013-04-11 21:55:00,31.3,30.0,29.69,East,79,0.0,-999.0,95,-99.99,,,0.56,weatherlink.com 1.10,2013-04-12 02:55:00,
2013-04-11 22:10:00,31.3,30.0,29.68,ENE,78,4.0,-999.0,95,-99.99,,,0.56,weatherlink.com 1.10,2013-04-12 03:10:00,
2013-04-11 22:25:00,31.3,30.0,29.69,East,91,0.0,-999.0,95,-99.99,,,0.56,weatherlink.com 1.10,2013-04-12 03:25:00,
2013-04-11 22:40:00,31.0,30.0,29.69,ENE,58,4.0,-999.0,95,-99.99,,,0.56,weatherlink.com 1.10,2013-04-12 03:40:00,
2013-04-11 22:55:00,30.9,30.0,29.69,NE,50,2.0,-999.0,95,-99.99,,,0.56,weatherlink.com 1.10,2013-04-12 03:55:00,
2013-04-11 23:10:00,30.7,30.0,29.69,NE,45,5.0,-999.0,95,-99.99,,,0.56,weatherlink.com 1.10,2013-04-12 04:10:00,
2013-04-11 23:25:00,30.7,30.0,29.69,ENE,58,1.0,-999.0,95,-99.99,,,0.56,weatherlink.com 1.10,2013-04-12 04:25:00,
2013-04-11 23:40:00,30.7,30.0,29.69,NE,43,2.0,-999.0,95,-99.99,,,0.56,weatherlink.com 1.10,2013-04-12 04:40:00,
2013-04-11 23:56:00,30.4,29.0,29.69,NE,53,1.0,-999.0,95,-99.99,,,0.56,weatherlink.com 1.10,2013-04-12 04:56:00,